TimeCST,TemperatureF,Dew PointF,Humidity,Sea Level PressureIn,VisibilityMPH,Wind Direction,Wind SpeedMPH,Gust SpeedMPH,PrecipitationIn,Events,Conditions,WindDirDegrees,DateUTC
12:56 AM,41.0,30.0,65,29.67,10.0,WSW,31.1,39.1,N/A,,Overcast,250,2013-02-11 06:56:00
1:56 AM,38.8,31.1,74,29.69,10.0,West,21.9,35.7,N/A,,Overcast,260,2013-02-11 07:56:00
2:56 AM,36.0,26.1,67,29.72,10.0,West,29.9,42.6,N/A,,Overcast,260,2013-02-11 08:56:00
3:56 AM,34.9,25.2,68,29.74,10.0,West,25.3,40.3,N/A,,Overcast,260,2013-02-11 09:56:00
4:56 AM,34.0,25.2,70,29.76,10.0,West,26.5,39.1,N/A,,Mostly Cloudy,270,2013-02-11 10:56:00
5:56 AM,34.0,25.2,70,29.78,10.0,West,26.5,38.0,N/A,,Overcast,260,2013-02-11 11:56:00
6:56 AM,32.9,24.1,70,29.81,10.0,West,21.9,27.6,N/A,,Mostly Cloudy,260,2013-02-11 12:56:00
7:56 AM,32.9,23.0,67,29.85,10.0,West,19.6,29.9,N/A,,Mostly Cloudy,260,2013-02-11 13:56:00
8:56 AM,32.9,24.1,70,29.89,10.0,West,17.3,24.2,N/A,,Overcast,260,2013-02-11 14:56:00
9:56 AM,32.9,23.0,67,29.91,10.0,West,24.2,36.8,0.00,,Overcast,260,2013-02-11 15:56:00
10:56 AM,32.9,24.1,70,29.94,10.0,West,23.0,29.9,N/A,,Overcast,270,2013-02-11 16:56:00
11:56 AM,34.9,24.1,65,29.95,10.0,West,26.5,34.5,N/A,,Overcast,260,2013-02-11 17:56:00
12:56 PM,36.0,24.1,62,29.95,10.0,West,25.3,34.5,N/A,,Mostly Cloudy,270,2013-02-11 18:56:00
1:56 PM,37.9,25.2,60,29.96,10.0,West,26.5,35.7,N/A,,Scattered Clouds,280,2013-02-11 19:56:00
2:56 PM,37.9,25.2,60,29.99,10.0,West,23.0,27.6,N/A,,Mostly Cloudy,270,2013-02-11 20:56:00
3:56 PM,36.9,25.2,63,30.02,10.0,West,20.7,32.2,N/A,,Mostly Cloudy,270,2013-02-11 21:56:00
4:56 PM,36.9,25.2,63,30.04,10.0,West,17.3,26.5,N/A,,Mostly Cloudy,280,2013-02-11 22:56:00
5:56 PM,34.0,26.1,73,30.06,10.0,WNW,16.1,-,N/A,,Partly Cloudy,290,2013-02-11 23:56:00
6:56 PM,32.0,25.2,76,30.09,10.0,West,17.3,-,N/A,,Clear,280,2013-02-12 00:56:00
7:56 PM,31.1,24.1,75,30.10,10.0,WNW,17.3,24.2,N/A,,Clear,290,2013-02-12 01:56:00
8:56 PM,29.1,24.1,81,30.12,10.0,WNW,12.7,-,N/A,,Clear,290,2013-02-12 02:56:00
9:56 PM,29.1,24.1,81,30.14,10.0,West,10.4,-,N/A,,Clear,280,2013-02-12 03:56:00
10:56 PM,28.0,23.0,81,30.14,10.0,West,9.2,-,N/A,,Clear,270,2013-02-12 04:56:00
11:56 PM,28.0,23.0,81,30.15,10.0,West,10.4,-,N/A,,Clear,280,2013-02-12 05:56:00